Volver al catálogo

MR-2

ActivoCienciaPO
NORAD 67556·PAYLOAD·🇪🇸 Spain

Lanzado Jan 22, 2026 desde Rocket Lab Launch Complex 1

Loading…

Próximos Pases (próximas 24 horas)

TLE

ActualizadoSource: Space-Track

Época: Sep 14, 2026, 09:52 UTC

1 67556U 26015A   26257.41160745  .00000045  00000-0  49273-4 0  9991
2 67556  88.9941 259.4829 0003814 149.1336 211.0041 13.52700412 31774

Sigue MR-2 en tiempo real con AllMySat

Download on the App Store